Location: Newark
(47.5833°N, 8.1500°E)
Time: 11:52:27
(UTC+00:00)

Transit 2A - Pass Details

Date: 01 November 2020
Orbit: 595 x 964 km, 66.7° (Epoch: 27 November)

Event Time Altitude Azimuth Distance (km) Brightness Sun altitude
Rises 06:18:39 0° 326° (NW) 3,526 8.9 0.2°
Reaches altitude 10° 06:21:48 10° 341° (NNW) 2,524 8.3 0.7°
Maximum altitude 06:26:22 23° 32° (NNE) 1,681 7.9 1.4°
Drops below altitude 10° 06:30:36 10° 85° (E) 2,318 9.7 2.1°
Sets 06:33:21 0° 100° (E) 3,172 11.1 2.5°
